�������l�o���
Date,Time,MP-1(��Sv/h),MP-2(��Sv/h),MP-3(��Sv/h),MP-4(��Sv/h),MP-5(��Sv/h),MP-6(��Sv/h),MP-7(��Sv/h),MP-8(��Sv/h),����,����(m/s),���J
2018/10/04,00:00,0.782,1.184,0.828,1.474,1.046,0.465,0.804,0.762,�k�k��,5.9,��
2018/10/04,00:10,0.780,1.182,0.827,1.472,1.044,0.463,0.805,0.762,�k�k��,5.9,��
2018/10/04,00:20,0.782,1.185,0.827,1.475,1.046,0.462,0.805,0.763,�k��,5.5,��
2018/10/04,00:30,0.781,1.185,0.824,1.474,1.043,0.462,0.805,0.763,�k��,5.6,��
2018/10/04,00:40,0.779,1.185,0.825,1.475,1.047,0.461,0.805,0.763,�k��,6.0,��
2018/10/04,00:50,0.781,1.185,0.826,1.475,1.044,0.461,0.806,0.762,�k�k��,5.6,��
2018/10/04,01:00,0.781,1.187,0.826,1.475,1.045,0.461,0.804,0.763,�k�k��,6.2,��
2018/10/04,01:10,0.781,1.184,0.826,1.475,1.047,0.463,0.806,0.761,�k�k��,6.5,��
2018/10/04,01:20,0.779,1.185,0.826,1.476,1.047,0.461,0.806,0.763,�k�k��,6.0,��
2018/10/04,01:30,0.781,1.183,0.824,1.475,1.045,0.461,0.805,0.760,�k�k��,6.7,��
2018/10/04,01:40,0.781,1.187,0.825,1.474,1.044,0.462,0.805,0.762,�k�k��,6.9,��
2018/10/04,01:50,0.780,1.185,0.824,1.475,1.044,0.463,0.805,0.760,�k�k��,6.5,��
2018/10/04,02:00,0.780,1.182,0.826,1.475,1.046,0.460,0.805,0.763,�k�k��,6.5,��
2018/10/04,02:10,0.782,1.184,0.824,1.476,1.048,0.462,0.805,0.761,�k�k��,7.0,��
2018/10/04,02:20,0.781,1.186,0.824,1.475,1.045,0.461,0.805,0.761,�k�k��,6.6,��
2018/10/04,02:30,0.781,1.183,0.825,1.475,1.045,0.461,0.807,0.762,�k�k��,7.2,��
2018/10/04,02:40,0.781,1.183,0.826,1.475,1.046,0.461,0.805,0.762,�k�k��,7.1,��
2018/10/04,02:50,0.780,1.186,0.825,1.475,1.045,0.461,0.805,0.762,�k�k��,7.6,��
2018/10/04,03:00,0.781,1.181,0.826,1.474,1.045,0.463,0.805,0.762,�k�k��,6.5,��
2018/10/04,03:10,0.780,1.184,0.824,1.478,1.046,0.462,0.804,0.762,�k�k��,6.8,��
2018/10/04,03:20,0.782,1.183,0.823,1.474,1.044,0.462,0.805,0.761,�k�k��,6.4,��
2018/10/04,03:30,0.780,1.183,0.823,1.473,1.046,0.461,0.804,0.762,�k�k��,6.6,��
2018/10/04,03:40,0.781,1.183,0.825,1.478,1.046,0.462,0.806,0.762,�k��,6.7,��
2018/10/04,03:50,0.780,1.184,0.825,1.475,1.047,0.461,0.806,0.762,�k��,6.7,��
2018/10/04,04:00,0.781,1.184,0.825,1.479,1.045,0.461,0.804,0.762,�k�k��,7.1,��
2018/10/04,04:10,0.781,1.182,0.823,1.474,1.046,0.461,0.806,0.761,�k�k��,7.1,��
2018/10/04,04:20,0.780,1.182,0.824,1.473,1.044,0.461,0.804,0.762,�k�k��,6.9,��
2018/10/04,04:30,0.782,1.184,0.824,1.477,1.043,0.460,0.806,0.762,�k�k��,7.3,��
2018/10/04,04:40,0.779,1.183,0.825,1.475,1.044,0.460,0.804,0.762,�k�k��,6.5,��
2018/10/04,04:50,0.778,1.185,0.825,1.477,1.045,0.462,0.804,0.761,�k�k��,6.2,��
2018/10/04,05:00,0.781,1.183,0.824,1.476,1.047,0.462,0.804,0.763,�k�k��,5.8,��
2018/10/04,05:10,0.782,1.182,0.823,1.475,1.043,0.464,0.805,0.762,�k�k��,6.1,��
2018/10/04,05:20,0.780,1.183,0.825,1.475,1.045,0.462,0.804,0.761,�k�k��,5.6,��
2018/10/04,05:30,0.779,1.184,0.826,1.477,1.043,0.461,0.803,0.762,�k�k��,6.3,��
2018/10/04,05:40,0.781,1.185,0.826,1.476,1.044,0.462,0.804,0.762,�k�k��,6.6,��
2018/10/04,05:50,0.780,1.183,0.826,1.473,1.046,0.462,0.806,0.762,�k�k��,6.4,��
2018/10/04,06:00,0.779,1.183,0.824,1.473,1.046,0.460,0.806,0.761,�k�k��,6.5,��
2018/10/04,06:10,0.780,1.184,0.824,1.476,1.043,0.461,0.803,0.764,�k�k��,7.1,��
2018/10/04,06:20,0.782,1.184,0.825,1.475,1.045,0.460,0.803,0.760,�k�k��,7.3,��
2018/10/04,06:30,0.780,1.182,0.824,1.476,1.046,0.461,0.806,0.762,�k�k��,6.8,��
2018/10/04,06:40,0.780,1.182,0.826,1.475,1.046,0.459,0.804,0.764,�k�k��,6.9,��
2018/10/04,06:50,0.780,1.181,0.825,1.476,1.046,0.461,0.805,0.762,�k�k��,6.7,��
2018/10/04,07:00,0.782,1.182,0.826,1.476,1.046,0.459,0.805,0.762,�k�k��,6.7,��
2018/10/04,07:10,0.779,1.182,0.826,1.478,1.044,0.462,0.805,0.763,�k�k��,6.8,��
2018/10/04,07:20,0.781,1.182,0.825,1.477,1.045,0.462,0.804,0.761,�k�k��,6.7,��
2018/10/04,07:30,0.782,1.182,0.826,1.477,1.047,0.460,0.804,0.762,�k�k��,6.7,��
2018/10/04,07:40,0.781,1.184,0.825,1.476,1.046,0.462,0.805,0.761,�k�k��,6.3,��
2018/10/04,07:50,0.781,1.183,0.826,1.475,1.046,0.461,0.806,0.763,�k�k��,5.9,��
2018/10/04,08:00,0.782,1.184,0.825,1.477,1.049,0.462,0.805,0.762,�k�k��,5.7,��
2018/10/04,08:10,0.782,1.182,0.827,1.477,1.048,0.460,0.803,0.763,�k�k��,5.8,��
2018/10/04,08:20,0.782,1.186,0.826,1.474,1.048,0.461,0.804,0.761,�k�k��,5.3,��
2018/10/04,08:30,0.782,1.184,0.828,1.478,1.047,0.460,0.804,0.763,�k�k��,4.1,��
2018/10/04,08:40,0.783,1.183,0.826,1.478,1.045,0.461,0.807,0.763,�k�k��,5.1,��
2018/10/04,08:50,0.783,1.180,0.827,1.474,1.047,0.460,0.804,0.763,�k�k��,5.6,��
2018/10/04,09:00,0.782,1.182,0.826,1.479,1.048,0.460,0.805,0.763,�k�k��,5.4,��
2018/10/04,09:10,0.781,1.179,0.824,1.477,1.046,0.461,0.804,0.762,�k�k��,5.5,��
2018/10/04,09:20,0.780,1.181,0.825,1.479,1.046,0.460,0.804,0.763,�k,5.1,��
2018/10/04,09:30,0.780,1.180,0.826,1.478,1.045,0.460,0.805,0.760,�k,5.2,��
2018/10/04,09:40,0.781,1.177,0.825,1.479,1.046,0.459,0.804,0.760,�k�k��,5.3,��
2018/10/04,09:50,0.780,1.180,0.823,1.479,1.047,0.460,0.805,0.760,�k,4.9,��
2018/10/04,10:00,0.781,1.179,0.824,1.481,1.049,0.459,0.805,0.763,�k,5.2,��
2018/10/04,10:10,0.783,1.179,0.824,1.479,1.046,0.458,0.808,0.759,�k,5.5,��
2018/10/04,10:20,0.781,1.179,0.824,1.479,1.045,0.458,0.806,0.761,�k,4.6,��
2018/10/04,10:30,0.777,1.183,0.822,1.479,1.048,0.460,0.806,0.762,�k,5.2,��
2018/10/04,10:40,0.782,1.177,0.824,1.481,1.048,0.461,0.805,0.760,�k,5.7,��
2018/10/04,10:50,0.782,1.182,0.823,1.478,1.048,0.459,0.806,0.760,�k,4.5,��
2018/10/04,11:00,0.781,1.183,0.825,1.480,1.048,0.459,0.806,0.761,�k,4.7,��
2018/10/04,11:10,0.784,1.181,0.826,1.481,1.047,0.459,0.805,0.760,�k,4.5,��
2018/10/04,11:20,0.783,1.183,0.825,1.477,1.049,0.460,0.805,0.762,�k,4.6,��
2018/10/04,11:30,0.783,1.187,0.828,1.479,1.049,0.458,0.805,0.762,�k�k��,4.6,��
2018/10/04,11:40,0.783,1.183,0.825,1.482,1.052,0.460,0.804,0.761,�k�k��,4.9,��
2018/10/04,11:50,0.784,1.184,0.826,1.480,1.050,0.460,0.807,0.760,�k�k��,4.5,��
2018/10/04,12:00,0.784,1.185,0.827,1.479,1.051,0.460,0.803,0.761,�k�k��,4.0,��
2018/10/04,12:10,0.785,1.187,0.824,1.481,1.050,0.460,0.805,0.761,�k�k��,3.9,��
2018/10/04,12:20,0.782,1.186,0.825,1.482,1.050,0.461,0.808,0.760,�k�k��,4.5,��
2018/10/04,12:30,0.782,1.184,0.825,1.483,1.051,0.459,0.807,0.760,�k�k��,4.1,��
2018/10/04,12:40,0.786,1.185,0.827,1.480,1.051,0.459,0.805,0.762,�k�k��,4.2,��
2018/10/04,12:50,0.783,1.184,0.825,1.479,1.051,0.460,0.804,0.762,�k�k��,4.2,��
2018/10/04,13:00,0.783,1.184,0.825,1.479,1.052,0.460,0.805,0.761,�k,4.5,��
2018/10/04,13:10,0.784,1.183,0.826,1.481,1.052,0.458,0.803,0.760,�k�k��,3.8,��
2018/10/04,13:20,0.781,1.183,0.826,1.481,1.051,0.460,0.807,0.760,�k,4.4,��
2018/10/04,13:30,0.785,1.184,0.826,1.482,1.052,0.458,0.805,0.762,�k�k��,4.5,��
2018/10/04,13:40,0.784,1.183,0.826,1.481,1.054,0.459,0.806,0.762,�k�k��,4.2,��
2018/10/04,13:50,0.785,1.184,0.823,1.482,1.051,0.460,0.806,0.761,�k�k��,4.6,��
2018/10/04,14:00,0.785,1.185,0.827,1.480,1.051,0.460,0.805,0.762,�k�k��,3.8,��
2018/10/04,14:10,0.785,1.186,0.825,1.480,1.051,0.460,0.806,0.761,�k�k��,4.3,��
2018/10/04,14:20,0.784,1.184,0.828,1.483,1.052,0.459,0.806,0.762,�k�k��,4.5,��
2018/10/04,14:30,0.784,1.182,0.826,1.484,1.051,0.458,0.804,0.759,�k�k��,4.0,��
2018/10/04,14:40,0.783,1.185,0.825,1.483,1.053,0.459,0.805,0.763,�k�k��,3.6,��
2018/10/04,14:50,0.783,1.181,0.826,1.484,1.053,0.459,0.804,0.761,�k�k��,3.3,��
2018/10/04,15:00,0.781,1.186,0.825,1.481,1.052,0.459,0.806,0.760,�k�k��,3.3,��
2018/10/04,15:10,0.782,1.187,0.826,1.484,1.053,0.459,0.806,0.762,�k,4.0,��
2018/10/04,15:20,0.782,1.184,0.826,1.483,1.052,0.460,0.805,0.762,�k,3.1,��
2018/10/04,15:30,0.783,1.185,0.827,1.483,1.054,0.460,0.805,0.761,�k,3.2,��
2018/10/04,15:40,0.785,1.185,0.826,1.484,1.054,0.459,0.804,0.763,�k�k��,2.3,��
2018/10/04,15:50,0.783,1.188,0.827,1.485,1.051,0.460,0.805,0.761,�k,2.9,��
2018/10/04,16:00,0.783,1.192,0.829,1.481,1.053,0.460,0.804,0.761,�k,2.8,��
2018/10/04,16:10,0.784,1.190,0.829,1.483,1.053,0.460,0.807,0.761,�k,2.3,��
2018/10/04,16:20,0.783,1.190,0.830,1.484,1.052,0.459,0.807,0.762,�k,2.2,��
2018/10/04,16:30,0.785,1.195,0.829,1.483,1.055,0.462,0.803,0.762,�k�k��,1.4,��
2018/10/04,16:40,0.785,1.194,0.829,1.482,1.054,0.459,0.806,0.762,�k�k��,2.0,��
2018/10/04,16:50,0.785,1.194,0.827,1.483,1.055,0.459,0.805,0.762,�k�k��,2.8,��
2018/10/04,17:00,0.786,1.195,0.829,1.484,1.054,0.461,0.806,0.764,�k�k��,2.6,��
2018/10/04,17:10,0.786,1.192,0.830,1.485,1.054,0.461,0.806,0.765,�k�k��,3.0,��
2018/10/04,17:20,0.788,1.192,0.830,1.480,1.055,0.460,0.806,0.763,�k��,2.8,��
2018/10/04,17:30,0.784,1.194,0.831,1.484,1.056,0.459,0.805,0.765,�k��,2.6,��
2018/10/04,17:40,0.786,1.194,0.829,1.485,1.053,0.461,0.804,0.763,�k��,2.2,��
2018/10/04,17:50,0.785,1.195,0.830,1.484,1.053,0.460,0.805,0.764,�k��,2.0,��
2018/10/04,18:00,0.788,1.195,0.832,1.486,1.055,0.459,0.806,0.763,�k��,2.6,��
2018/10/04,18:10,0.786,1.194,0.828,1.483,1.055,0.461,0.807,0.765,�k��,2.6,��
2018/10/04,18:20,0.787,1.194,0.830,1.484,1.056,0.461,0.809,0.764,�k��,2.3,��
2018/10/04,18:30,0.787,1.195,0.830,1.484,1.055,0.460,0.806,0.766,���k��,2.6,��
2018/10/04,18:40,0.786,1.194,0.831,1.482,1.054,0.460,0.808,0.763,�k��,2.5,��
2018/10/04,18:50,0.788,1.195,0.830,1.483,1.053,0.462,0.806,0.763,�k��,2.6,��
2018/10/04,19:00,0.786,1.192,0.831,1.483,1.056,0.461,0.807,0.764,�k��,2.2,��
2018/10/04,19:10,0.787,1.191,0.828,1.483,1.055,0.462,0.807,0.764,�k�k��,2.0,�L
2018/10/04,19:20,0.787,1.189,0.830,1.483,1.055,0.461,0.806,0.765,�k�k��,1.5,�L
2018/10/04,19:30,0.785,1.190,0.830,1.484,1.056,0.461,0.808,0.764,�k�k��,1.4,�L
2018/10/04,19:40,0.788,1.194,0.830,1.485,1.055,0.460,0.807,0.765,�k�k��,1.2,��
2018/10/04,19:50,0.788,1.193,0.832,1.483,1.054,0.462,0.806,0.763,�k,0.6,��
2018/10/04,20:00,0.786,1.192,0.830,1.487,1.055,0.461,0.806,0.765,-,CALM,��
2018/10/04,20:10,0.785,1.192,0.830,1.481,1.054,0.461,0.806,0.764,-,CALM,��
2018/10/04,20:20,0.787,1.192,0.830,1.484,1.054,0.462,0.805,0.763,��쓌,0.6,��
2018/10/04,20:30,0.786,1.194,0.830,1.484,1.056,0.461,0.807,0.764,-,CALM,��
2018/10/04,20:40,0.787,1.195,0.829,1.485,1.055,0.462,0.806,0.764,�k��,1.1,��
2018/10/04,20:50,0.786,1.191,0.828,1.483,1.053,0.462,0.805,0.762,�k,1.1,��
2018/10/04,21:00,0.787,1.193,0.832,1.484,1.055,0.461,0.806,0.762,-,CALM,��
2018/10/04,21:10,0.786,1.195,0.830,1.484,1.055,0.462,0.805,0.764,�k��,0.8,��
2018/10/04,21:20,0.787,1.193,0.830,1.487,1.055,0.461,0.805,0.764,��쓌,1.2,��
2018/10/04,21:30,0.787,1.191,0.831,1.482,1.055,0.461,0.806,0.763,�k,0.6,��
2018/10/04,21:40,0.787,1.195,0.831,1.484,1.055,0.461,0.804,0.764,��,1.5,��
2018/10/04,21:50,0.787,1.193,0.831,1.483,1.053,0.460,0.805,0.765,�k��,1.2,��
2018/10/04,22:00,0.787,1.191,0.830,1.483,1.054,0.461,0.806,0.764,�k�k��,0.8,��
2018/10/04,22:10,0.785,1.192,0.831,1.481,1.055,0.462,0.805,0.765,�k�k��,0.8,��
2018/10/04,22:20,0.789,1.193,0.829,1.484,1.055,0.461,0.808,0.763,��,1.7,��
2018/10/04,22:30,0.786,1.193,0.834,1.483,1.055,0.460,0.804,0.763,��,1.5,��
2018/10/04,22:40,0.786,1.194,0.830,1.482,1.056,0.461,0.806,0.764,-,CALM,��
2018/10/04,22:50,0.787,1.193,0.830,1.485,1.056,0.462,0.804,0.761,�k��,1.1,��
2018/10/04,23:00,0.786,1.192,0.831,1.484,1.054,0.460,0.805,0.762,�쐼,0.6,��
2018/10/04,23:10,0.786,1.192,0.830,1.485,1.054,0.461,0.805,0.764,-,CALM,��
2018/10/04,23:20,0.785,1.194,0.831,1.483,1.054,0.461,0.806,0.761,���쓌,0.9,��
2018/10/04,23:30,0.787,1.192,0.829,1.485,1.054,0.462,0.807,0.762,-,CALM,��
2018/10/04,23:40,0.786,1.191,0.831,1.482,1.057,0.461,0.807,0.764,�k��,0.6,��
2018/10/04,23:50,0.786,1.194,0.831,1.485,1.055,0.461,0.808,0.764,�k,1.1,��
